Lexington Weather

Lexington, Massachusetts, USA

25°F
1/21/2021 10:12am 
  • Lexington Conditions: Clear
  • Temperature: 25.0°F / -3.9°CWarmer 2.2°F than last hour.
  • Dew Point: 13.8°FIncreased 1.6°Fsince last hour.
  • Relative Humidity: 62%Decreased 1.0% since last hour.
  • Wind: Calm, 10-min avg: Calm, gust: 4 mph
  • Barometer: 29.78 in Steady
  • Visibility: 10 miles
  • Snow Today: Trace
  •   

Regional Weather Roundup
for Boston / Norton, MA

        
000
ASUS41 KBOX 150704
RWRBOX

REGIONAL WEATHER ROUNDUP
NATIONAL WEATHER SERVICE BOSTON/NORTON MA
200 AM EST FRI JAN 15 2021

NOTE:  "FAIR" INDICATES FEW OR NO CLOUDS BELOW 12,000 FEET WITH NO 
SIGNIFICANT WEATHER AND/OR OBSTRUCTIONS TO VISIBILITY.

MAZALL-150800-
EASTERN MASSACHUSETTS
  
CITY           SKY/WX    TMP DP  RH WIND       PRES   REMARKS
BOSTON         CLOUDY    34  33  96 N7        29.97R FOG     WCI  28  
BEVERLY        CLOUDY    34  33  96 NW5       29.95R FOG     WCI  30  
LAWRENCE       CLOUDY    34  33  96 CALM      29.98R FOG              
BEDFORD        CLOUDY    34  33  96 NW3       29.95R FOG              
BLUE HILL        N/A     33  33 100 N5        29.92R WCI  29          
NORWOOD        CLOUDY    36  33  89 N5        29.96R FOG              
MARSHFIELD     CLOUDY    41  39  93 VRB6G12   29.95R                  
PLYMOUTH       CLOUDY    37  35  92 N6        29.93R FOG              
TAUNTON        CLOUDY    38  34  85 N5        29.94R FOG              
NEW BEDFORD    CLOUDY    38  35  89 N5        29.93R                  
$$

MAZALL-150800-
CAPE COD AND THE ISLANDS
  
CITY           SKY/WX    TMP DP  RH WIND       PRES   REMARKS
FALMOUTH       CLOUDY    39  37  93 N6        29.92R                  
HYANNIS        CLOUDY    41  38  89 N7        29.91R                  
CHATHAM        CLOUDY    40  38  93 CALM      29.93R FOG              
PROVINCETOWN   CLOUDY    39  37  92 NE10      29.95R                  
NANTUCKET      CLOUDY    41  40  96 N7        29.91R                  
MARTHAS VNYRD  CLOUDY    40  38  93 N7        29.92R                  
$$
 
MAZALL-150800-
CENTRAL AND WESTERN MASSACHUSETTS
  
CITY           SKY/WX    TMP DP  RH WIND       PRES   REMARKS
WORCESTER      FOG       32  30  92 N7        29.92R VSB 1/4 WCI  26  
FITCHBURG      CLOUDY    33  33 100 CALM      29.96R FOG              
ORANGE         CLOUDY    33  32  96 CALM      29.95R FOG              
SPRINGFIELD    CLOUDY    32  32  99 NE5       29.93R FOG     WCI  28  
WESTFIELD      CLOUDY    32  31  96 N5        29.94R FOG     WCI  27  
NORTH ADAMS    CLOUDY    31  29  92 CALM      29.94R FOG              
PITTSFIELD     FOG       31  30  96 CALM      29.89R VSB 1/4          
$$
 
RIZALL-150800-
RHODE ISLAND
  
CITY           SKY/WX    TMP DP  RH WIND       PRES   REMARKS
PROVIDENCE     CLOUDY    37  34  89 N8        29.94R WCI  31          
NEWPORT        CLOUDY    37  35  92 N9        29.93R FOG     WCI  30  
BLOCK ISLAND   CLOUDY    38  36  92 NE12      29.93R WCI  30          
SMITHFIELD     CLOUDY    33  33 100 N8        29.94R FOG     WCI  26  
WESTERLY       MOCLDY    35  33  92 N3        29.93R FOG              
$$
 
CTZALL-150800-
CONNECTICUT
  
CITY           SKY/WX    TMP DP  RH WIND       PRES   REMARKS
BRADLEY INTL   CLOUDY    33  31  92 N5        29.94R FOG     WCI  29  
HARTFORD       CLOUDY    35  32  88 NE5       29.95R FOG     WCI  31  
BRIDGEPORT     CLOUDY    39  33  79 NE5       29.93                   
DANBURY        PTCLDY    30  28  92 CALM      29.93R FOG              
GROTON         CLOUDY    38  34  85 N7        29.93R FOG              
NEW HAVEN      CLOUDY    38  34  85 N6        29.93R FOG              
CHESTER        CLOUDY    36  34  93 N7        29.92R FOG     WCI  30  
MERIDEN        CLOUDY    36  32  85 CALM      29.94R                  
WILLIMANTIC    CLOUDY    34  32  92 N5        29.94R FOG     WCI  30  
OXFORD         MOCLDY    34  34 100 NE8       29.91R FOG     WCI  27  
$$

MEZ002-015-021-024-NHZ003-005-008-011-012-014-VTZ005-008-150800-
NORTHERN NEW ENGLAND
  
CITY           SKY/WX    TMP DP  RH WIND       PRES   REMARKS
PORTLAND ME    CLOUDY    33  26  75 NW5       29.97R WCI  29          
BANGOR ME      CLOUDY    32  25  75 NE5       29.96R WCI  27          
CONCORD NH     CLOUDY    31  26  82 CALM      29.97R                  
MANCHESTER NH  CLOUDY    34  30  85 N5        29.95R FOG     WCI  30  
NASHUA NH      CLOUDY    33  33 100 NW5         N/A  FOG     WCI  29  
PORTSMOUTH NH  CLOUDY    34  29  79 N6        29.95R WCI  29          
JAFFREY NH     CLOUDY    32  28  85 CALM      29.92R                  
KEENE NH       CLOUDY    31  29  92 CALM      29.95R FOG              
BURLINGTON VT  CLEAR     28  25  88 CALM      29.96R FOG              
MT. WASHINGTON NOT AVBL                                               
$$

NYZ052-076-150800-
EASTERN NEW YORK
  
CITY           SKY/WX    TMP DP  RH WIND       PRES   REMARKS
ALBANY         CLOUDY    29  27  92 N5        29.95R WCI  24          
NEW YORK CITY  MOCLDY    39  32  76 E3        29.91R                  
$$
 
ANZALL-150800-
MARINE OBSERVATIONS
  
STATION/POSITION TIME  TEMP    WIND        PRES    VSBY  WAVE
                       AIR SEA DIR/SP/G                  HT/PER
                 (UTC) (F)     (DEG/KT/KT) (MB)    (MI)  (FT/S)
BOSTON BUOY      0640   40 43   30/ 10/ 12 1014.4R
BUZZARDS BAY     0600           10/ 11/ 12 1013.8R
NANTUCKET SOUND  0640      41   10/ 10/ 12   N/A
MASS BAY-STELLWA 0604   39      30/ 10/ 12 1012.3R  1 7/8  1/ 3
ISLE OF SHOALS   0600   37     360/ 11/ 12 1013.3R
S OF BLOCK IS    0626      47                N/A           3/ 3
$$

......................KEY.........................
  SKY/WX - SKY CONDITION/PRESENT WEATHER
  TMP    - TEMPERATURE IN FAHRENHEIT
  DWPT   - DEWPOINT IN FAHRENHEIT
  RH     - RELATIVE HUMIDITY IN PERCENT
  WIND   - DIRECTION AND SPEED IN MPH
  PRES   - MEAN SEA LEVEL PRESSURE IN INCHES OF HG
  WCI    - WIND CHILL INDEX
  VSB    - VISIBILITY IN MILES
  HX     - HEAT INDEX
  TC     - TEMPERATURE IN CELSIUS
  VRB    - VARIABLE WIND DIRECTION
  N/A    - NOT AVAILABLE
  
      

Other recent Regional Weather Roundups

Thu Jan 21, 9:04am

Thu Jan 21, 7:04am

Thu Jan 21, 6:04am

Thu Jan 21, 5:04am

Thu Jan 21, 4:04am

Thu Jan 21, 3:04am

Thu Jan 21, 2:04am

Thu Jan 21, 1:04am

Thu Jan 21, 12:04am

Wed Jan 20, 11:04pm

Wed Jan 20, 10:05pm

Wed Jan 20, 9:04pm

Wed Jan 20, 8:04pm

Wed Jan 20, 7:04pm

Wed Jan 20, 6:05pm

Wed Jan 20, 5:05pm

Wed Jan 20, 1:04pm

Wed Jan 20, 12:04pm

Wed Jan 20, 11:04am

Wed Jan 20, 10:04am

Wed Jan 20, 9:05am

Wed Jan 20, 8:04am

Wed Jan 20, 7:04am

Wed Jan 20, 6:04am

Wed Jan 20, 5:04am

Wed Jan 20, 4:04am

Wed Jan 20, 3:05am

Wed Jan 20, 2:04am

Wed Jan 20, 1:04am

Wed Jan 20, 12:04am

Tue Jan 19, 11:04pm

Tue Jan 19, 10:04pm

Tue Jan 19, 9:04pm

Tue Jan 19, 8:04pm

Tue Jan 19, 7:04pm

Tue Jan 19, 6:05pm

Tue Jan 19, 5:04pm

Tue Jan 19, 4:05pm

Tue Jan 19, 3:04pm

Tue Jan 19, 2:04pm

Tue Jan 19, 1:04pm

Tue Jan 19, 12:05pm

Tue Jan 19, 11:04am

Tue Jan 19, 10:05am

Tue Jan 19, 9:04am

Tue Jan 19, 8:04am

Tue Jan 19, 7:04am

Tue Jan 19, 6:04am

Tue Jan 19, 5:04am

Tue Jan 19, 4:04am

Tue Jan 19, 3:04am

Tue Jan 19, 2:04am

Tue Jan 19, 1:04am

Tue Jan 19, 12:04am

Mon Jan 18, 11:04pm

Mon Jan 18, 10:04pm

Mon Jan 18, 9:04pm

Mon Jan 18, 8:05pm

Mon Jan 18, 7:04pm

Mon Jan 18, 6:05pm

Mon Jan 18, 5:04pm

Mon Jan 18, 4:04pm

Mon Jan 18, 3:04pm

Mon Jan 18, 2:04pm

Mon Jan 18, 1:04pm

Mon Jan 18, 12:04pm

Mon Jan 18, 11:04am

Mon Jan 18, 10:04am

Mon Jan 18, 9:04am

Mon Jan 18, 8:04am

Mon Jan 18, 7:04am

Mon Jan 18, 6:04am

Mon Jan 18, 5:04am

Mon Jan 18, 4:04am

Mon Jan 18, 3:04am

Mon Jan 18, 2:04am

Mon Jan 18, 1:04am

Mon Jan 18, 12:04am

Sun Jan 17, 11:04pm

Sun Jan 17, 10:04pm

Sun Jan 17, 9:04pm

Sun Jan 17, 8:04pm

Sun Jan 17, 7:04pm

Sun Jan 17, 6:04pm

Sun Jan 17, 5:04pm

Sun Jan 17, 4:05pm

Sun Jan 17, 3:04pm

Sun Jan 17, 2:04pm

Sun Jan 17, 1:04pm

Sun Jan 17, 12:04pm

Sun Jan 17, 11:04am

Sun Jan 17, 10:04am

Sun Jan 17, 9:04am

Sun Jan 17, 8:04am

Sun Jan 17, 7:04am

Sun Jan 17, 6:04am

Sun Jan 17, 5:04am

Sun Jan 17, 4:04am

Sun Jan 17, 3:04am

Sun Jan 17, 2:04am

Sun Jan 17, 1:04am

Sun Jan 17, 12:04am

Sat Jan 16, 11:05pm

Sat Jan 16, 10:04pm

Sat Jan 16, 9:04pm

Sat Jan 16, 8:05pm

Sat Jan 16, 7:04pm

Sat Jan 16, 6:04pm

Sat Jan 16, 5:05pm

Sat Jan 16, 4:05pm

Sat Jan 16, 3:05pm

Sat Jan 16, 2:04pm

Sat Jan 16, 1:04pm

Sat Jan 16, 12:04pm

Sat Jan 16, 11:04am

Sat Jan 16, 10:05am

Sat Jan 16, 9:04am

Sat Jan 16, 8:04am

Sat Jan 16, 7:04am

Sat Jan 16, 6:04am

Sat Jan 16, 5:04am

Sat Jan 16, 4:04am

Sat Jan 16, 3:05am

Sat Jan 16, 2:04am

Sat Jan 16, 1:04am

Sat Jan 16, 12:05am

Fri Jan 15, 11:05pm

Fri Jan 15, 10:04pm

Fri Jan 15, 9:04pm

Fri Jan 15, 8:04pm

Fri Jan 15, 7:05pm

Fri Jan 15, 6:05pm

Fri Jan 15, 5:05pm

Fri Jan 15, 4:05pm

Fri Jan 15, 3:04pm

Fri Jan 15, 2:05pm

Fri Jan 15, 1:04pm

Fri Jan 15, 12:05pm

Fri Jan 15, 11:04am

Fri Jan 15, 10:04am

Fri Jan 15, 9:05am

Fri Jan 15, 8:04am

Fri Jan 15, 7:04am

Fri Jan 15, 6:04am

Fri Jan 15, 5:05am

Fri Jan 15, 4:04am

Fri Jan 15, 3:04am

Fri Jan 15, 1:04am

Fri Jan 15, 12:05am

Thu Jan 14, 11:04pm

Thu Jan 14, 10:04pm

Thu Jan 14, 9:04pm

Thu Jan 14, 8:05pm

Thu Jan 14, 7:04pm

Thu Jan 14, 6:04pm

Thu Jan 14, 5:04pm

Thu Jan 14, 4:05pm

Thu Jan 14, 3:04pm

Thu Jan 14, 2:04pm

Thu Jan 14, 1:04pm

Thu Jan 14, 12:05pm

Thu Jan 14, 11:05am

Thu Jan 14, 10:04am

Thu Jan 14, 9:04am

Thu Jan 14, 8:04am

Thu Jan 14, 7:04am

Thu Jan 14, 6:04am

Thu Jan 14, 5:04am

Thu Jan 14, 4:04am

Thu Jan 14, 3:04am

Thu Jan 14, 2:04am

Thu Jan 14, 1:04am

Thu Jan 14, 12:04am

Wed Jan 13, 11:04pm

Wed Jan 13, 10:04pm

Wed Jan 13, 9:04pm

Wed Jan 13, 8:05pm

Wed Jan 13, 7:04pm

Wed Jan 13, 6:04pm

Wed Jan 13, 5:04pm

Wed Jan 13, 4:04pm

Wed Jan 13, 3:05pm

Wed Jan 13, 2:04pm

Wed Jan 13, 1:04pm

Wed Jan 13, 12:04pm

Wed Jan 13, 11:04am

Wed Jan 13, 10:04am

Wed Jan 13, 9:05am

Wed Jan 13, 8:04am

Wed Jan 13, 7:04am

Wed Jan 13, 6:04am

Wed Jan 13, 5:04am

Wed Jan 13, 4:04am

Wed Jan 13, 3:04am

Wed Jan 13, 2:04am

Wed Jan 13, 1:04am

Wed Jan 13, 12:05am

Tue Jan 12, 11:04pm

Tue Jan 12, 10:04pm

Tue Jan 12, 9:04pm

Tue Jan 12, 8:05pm

Tue Jan 12, 7:04pm

Meta data:

ID: 0bfdcad0-6de7-495e-93dc-70e5b038a09b
Link: https://api.weather.gov/products/0bfdcad0-6de7-495e-93dc-70e5b038a09b